Starlink 35450

operational
NORAD ID: 65868 Int'l Des: 2025-223 Owner: SPXS Country: US Constellation: starlink
NOTLE

Starlink 35450について

説明を読み込み中...

リアルタイム位置

3D地球を読み込み中...

次回通過

高度履歴

Altitude vs Time

uPlot chart will show altitude changes over time

軌道要素

1 65868U 25223Q 25341.33336806 .00014497 00000-0 50090-3 0 9996
2 65868 53.1611 3.3284 0002006 84.2373 256.8744 15.30181625 5910
Epoch: Dec 7, 2025 • Age: 12 hours

現在のステータス

高度 478.8 km
速度 7.63 km/s
衛星直下点 -11.75°S, 174.55°E
打ち上げ日 Oct 3, 2025
運用期間 0.1 years
タイプ internet

技術仕様

分類 Payload
質量 575.00 kg
乾燥質量 530.00 kg
総質量 575.00 kg
長さ 0.30 m
直径 4.10 m
スパン 29.00 m
形状 Box + pan
製造者 SPXS
バスタイプ Starlink V2MO
フェーズステータス In Orbit
所有者/国 SPXS/US

大規模コンステレーション

Loading constellations...